Location: ?????????
(54.7630°N, 39.4991°E)
Time: 02:30:13
(UTC+00:00)

ATLAS 3B R/B - Pass Details

Date: 14 April 2026
Orbit: 937 x 1256 km, 63.8° (Epoch: 20 May)

Event Time Altitude Azimuth Distance (km) Brightness Sun altitude
Rises 23:32:55 0° 313° (NW) 4,216 5.9 -19.9°
Reaches altitude 10° 23:35:48 10° 309° (NW) 3,236 5.3 -19.7°
Maximum altitude 23:43:22 54° 235° (SW) 1,447 3.0 -19.1°
Drops below altitude 10° 23:50:32 10° 161° (SSE) 3,066 4.8 -18.4°
Sets 23:53:13 0° 157° (SSE) 3,981 5.4 -18.2°
